• In Hungary
  • List of Countries
  • For 7 days
  • Water Temperature
  • Satellite Maps
  • Weather Map
  • News
  • Weather Widgets
  • user-avatar
    Login

    Hourly Weather Pszczew

    Today, 11 December, Monday

    Time Temperature Precipitation Wind Pressure Humidity
    00:00 -1°C° 0.3 mm 4 mps 733 mmHg 83%
    01:00 -1°C° 0 mm 5 mps 733 mmHg 83%
    02:00 0°C° 0.3 mm 5 mps 733 mmHg 83%
    03:00 +1°C° 0.3 mm 5 mps 733 mmHg 84%
    04:00 +2°C° 0.3 mm 5 mps 733 mmHg 85%
    05:00 +2°C° 0 mm 5 mps 733 mmHg 85%
    06:00 +2°C° 0 mm 5 mps 734 mmHg 85%
    07:00 +2°C° 0 mm 5 mps 734 mmHg 85%
    08:00 +2°C° 0 mm 5 mps 734 mmHg 85%
    09:00 +3°C° 0 mm 4 mps 735 mmHg 84%
    10:00 +3°C° 0 mm 4 mps 735 mmHg 84%
    11:00 +4°C° 0 mm 3 mps 736 mmHg 83%
    12:00 +5°C° 0 mm 2 mps 736 mmHg 83%
    13:00 +5°C° 0 mm 2 mps 736 mmHg 82%
    14:00 +5°C° 0 mm 2 mps 736 mmHg 83%
    15:00 +4°C° 0 mm 2 mps 735 mmHg 85%
    16:00 +3°C° 0 mm 3 mps 735 mmHg 86%
    17:00 +3°C° 0 mm 3 mps 735 mmHg 88%
    18:00 +3°C° 0 mm 3 mps 734 mmHg 89%
    19:00 +3°C° 0 mm 3 mps 734 mmHg 91%
    20:00 +3°C° 0 mm 3 mps 734 mmHg 91%
    21:00 +3°C° 0 mm 3 mps 734 mmHg 91%
    22:00 +3°C° 0 mm 3 mps 734 mmHg 91%
    23:00 +3°C° 0.1 mm 3 mps 735 mmHg 89%

    Tomorrow, 12 December, Tuesday

    Time Temperature Precipitation Wind Pressure Humidity
    00:00 +4°C° 0.1 mm 3 mps 735 mmHg 88%
    01:00 +4°C° 0.1 mm 4 mps 736 mmHg 87%
    02:00 +4°C° 0.1 mm 4 mps 736 mmHg 88%
    03:00 +4°C° 0.1 mm 4 mps 737 mmHg 88%
    04:00 +5°C° 0.1 mm 4 mps 737 mmHg 89%
    05:00 +5°C° 0 mm 4 mps 738 mmHg 85%
    06:00 +5°C° 0 mm 5 mps 738 mmHg 82%
    07:00 +5°C° 0 mm 5 mps 739 mmHg 78%
    08:00 +5°C° 0 mm 6 mps 739 mmHg 74%
    09:00 +5°C° 0 mm 7 mps 739 mmHg 71%
    10:00 +5°C° 0 mm 7 mps 740 mmHg 67%
    11:00 +5°C° 0 mm 8 mps 741 mmHg 67%
    12:00 +5°C° 0 mm 8 mps 741 mmHg 68%
    13:00 +3°C° 0 mm 9 mps 742 mmHg 68%
    14:00 +3°C° 0 mm 9 mps 743 mmHg 69%
    15:00 +2°C° 0 mm 9 mps 744 mmHg 71%
    16:00 +2°C° 0 mm 8 mps 746 mmHg 72%
    17:00 +1°C° 0.2 mm 8 mps 747 mmHg 73%
    18:00 +1°C° 0.2 mm 8 mps 748 mmHg 73%
    19:00 +1°C° 0.2 mm 8 mps 749 mmHg 73%
    20:00 0°C° 0.1 mm 7 mps 750 mmHg 74%
    21:00 0°C° 0.1 mm 7 mps 750 mmHg 75%
    22:00 0°C° 0.1 mm 7 mps 751 mmHg 75%
    23:00 -1°C° 0 mm 6 mps 752 mmHg 78%

    Day after tomorrow, 13 December, Wednesday

    Time Temperature Precipitation Wind Pressure Humidity
    00:00 0°C° 0 mm 5 mps 753 mmHg 81%
    01:00 -1°C° 0 mm 5 mps 753 mmHg 83%
    02:00 -1°C° 0 mm 4 mps 754 mmHg 86%
    03:00 -1°C° 0 mm 4 mps 754 mmHg 88%
    04:00 -1°C° 0 mm 4 mps 755 mmHg 91%
    05:00 -2°C° 0 mm 4 mps 755 mmHg 91%
    06:00 -2°C° 0 mm 4 mps 755 mmHg 90%
    07:00 -2°C° 0 mm 4 mps 756 mmHg 90%
    08:00 -2°C° 0 mm 4 mps 755 mmHg 87%
    09:00 -1°C° 0 mm 5 mps 755 mmHg 83%
    10:00 -1°C° 0 mm 5 mps 755 mmHg 79%
    11:00 0°C° 0 mm 5 mps 754 mmHg 75%
    12:00 0°C° 0 mm 5 mps 754 mmHg 70%
    13:00 +1°C° 0 mm 6 mps 753 mmHg 66%
    14:00 +1°C° 0 mm 5 mps 753 mmHg 67%
    15:00 0°C° 0 mm 5 mps 752 mmHg 68%
    16:00 0°C° 0 mm 5 mps 751 mmHg 69%
    17:00 0°C° 0 mm 5 mps 751 mmHg 68%
    18:00 -1°C° 0 mm 6 mps 750 mmHg 66%
    19:00 -1°C° 0 mm 6 mps 749 mmHg 64%
    20:00 -1°C° 0.2 mm 6 mps 748 mmHg 66%
    21:00 -1°C° 0.2 mm 7 mps 748 mmHg 67%
    22:00 -1°C° 0.2 mm 7 mps 747 mmHg 69%
    23:00 -1°C° 0.3 mm 6 mps 746 mmHg 71%

    14 December, Thursday

    Time Temperature Precipitation Wind Pressure Humidity
    00:00 -1°C° 0.3 mm 6 mps 746 mmHg 73%
    01:00 -1°C° 0.3 mm 6 mps 745 mmHg 75%
    02:00 +1°C° 0 mm 6 mps 744 mmHg 76%
    03:00 +1°C° 0 mm 6 mps 743 mmHg 77%
    04:00 +1°C° 0 mm 6 mps 742 mmHg 78%
    05:00 +2°C° 0.3 mm 6 mps 742 mmHg 79%
    06:00 +2°C° 0.3 mm 6 mps 742 mmHg 80%
    07:00 +3°C° 0.3 mm 6 mps 741 mmHg 81%
    08:00 +3°C° 0.1 mm 6 mps 742 mmHg 82%
    09:00 +3°C° 0.1 mm 6 mps 742 mmHg 83%
    10:00 +3°C° 0.1 mm 5 mps 742 mmHg 84%
    11:00 +5°C° 0 mm 5 mps 741 mmHg 80%
    12:00 +5°C° 0 mm 5 mps 741 mmHg 77%
    13:00 +5°C° 0 mm 5 mps 741 mmHg 73%
    14:00 +5°C° 0 mm 5 mps 740 mmHg 76%
    15:00 +4°C° 0 mm 4 mps 740 mmHg 80%
    16:00 +4°C° 0 mm 4 mps 740 mmHg 83%
    17:00 +4°C° 0.6 mm 4 mps 739 mmHg 82%
    18:00 +4°C° 0.6 mm 4 mps 738 mmHg 82%
    19:00 +4°C° 0.6 mm 4 mps 738 mmHg 82%
    20:00 +3°C° 0.7 mm 4 mps 737 mmHg 84%
    21:00 +3°C° 0.7 mm 4 mps 737 mmHg 85%
    22:00 +3°C° 0.7 mm 4 mps 737 mmHg 86%
    23:00 +1°C° 0.1 mm 4 mps 738 mmHg 84%

    15 December, Friday

    Time Temperature Precipitation Wind Pressure Humidity
    00:00 +1°C° 0.1 mm 5 mps 739 mmHg 82%
    01:00 +1°C° 0.1 mm 5 mps 739 mmHg 80%
    02:00 0°C° 0 mm 5 mps 740 mmHg 82%
    03:00 0°C° 0 mm 4 mps 740 mmHg 83%
    04:00 -1°C° 0 mm 4 mps 741 mmHg 85%
    05:00 -1°C° 0 mm 4 mps 741 mmHg 86%
    06:00 -1°C° 0 mm 4 mps 742 mmHg 86%
    07:00 -1°C° 0 mm 4 mps 742 mmHg 87%
    08:00 -1°C° 0 mm 5 mps 742 mmHg 84%
    09:00 -1°C° 0 mm 5 mps 742 mmHg 81%
    10:00 0°C° 0 mm 5 mps 742 mmHg 78%
    11:00 0°C° 0 mm 5 mps 742 mmHg 74%
    12:00 +1°C° 0 mm 5 mps 742 mmHg 71%
    13:00 +1°C° 0 mm 5 mps 742 mmHg 67%
    14:00 +1°C° 0 mm 4 mps 742 mmHg 71%
    15:00 +1°C° 0 mm 3 mps 742 mmHg 75%
    16:00 0°C° 0 mm 3 mps 742 mmHg 80%
    17:00 +1°C° 0 mm 2 mps 742 mmHg 81%
    18:00 +1°C° 0 mm 2 mps 743 mmHg 83%
    19:00 -1°C° 0 mm 2 mps 743 mmHg 84%
    20:00 -1°C° 0 mm 2 mps 743 mmHg 86%
    21:00 -1°C° 0 mm 2 mps 743 mmHg 88%
    22:00 -1°C° 0 mm 2 mps 743 mmHg 90%
    23:00 -1°C° 0 mm 2 mps 743 mmHg 91%

    16 December, Saturday

    Time Temperature Precipitation Wind Pressure Humidity
    00:00 -1°C° 0 mm 2 mps 743 mmHg 92%
    01:00 -1°C° 0 mm 2 mps 744 mmHg 93%
    02:00 -1°C° 0 mm 2 mps 744 mmHg 93%
    03:00 -1°C° 0 mm 2 mps 744 mmHg 93%
    04:00 -2°C° 0 mm 2 mps 744 mmHg 94%
    05:00 -2°C° 0 mm 2 mps 744 mmHg 94%
    06:00 -2°C° 0 mm 2 mps 744 mmHg 94%
    07:00 -2°C° 0 mm 2 mps 744 mmHg 94%
    08:00 -1°C° 0 mm 2 mps 745 mmHg 92%
    09:00 -1°C° 0 mm 3 mps 745 mmHg 90%
    10:00 0°C° 0 mm 3 mps 746 mmHg 88%
    11:00 +1°C° 0 mm 3 mps 746 mmHg 86%
    12:00 +1°C° 0 mm 3 mps 746 mmHg 84%
    13:00 +1°C° 0 mm 4 mps 746 mmHg 82%
    14:00 0°C° 0 mm 4 mps 747 mmHg 85%
    15:00 0°C° 0 mm 4 mps 747 mmHg 87%
    16:00 -1°C° 0 mm 4 mps 747 mmHg 90%
    17:00 0°C° 0 mm 4 mps 748 mmHg 89%
    18:00 0°C° 0 mm 4 mps 748 mmHg 87%
    19:00 0°C° 0 mm 4 mps 749 mmHg 86%
    20:00 0°C° 0 mm 4 mps 749 mmHg 87%
    21:00 -1°C° 0 mm 4 mps 750 mmHg 88%
    22:00 -1°C° 0 mm 4 mps 750 mmHg 89%
    23:00 -1°C° 0 mm 4 mps 750 mmHg 89%
    Show more